| time (UTC) | temp C | wind direction | speed KPH | gust KPH | rain 1hr cm | rain 24hr cm | rain mn cm | humidity % | barometer mb |
| 20260508230212 | 26 | 53 | 3.2 | 0.0 | 0.00 | 0.00 | 20.98 | 63 | 1008.0 |
| 20260508223224 | 26 | 53 | 3.2 | 0.0 | 0.00 | 0.00 | 20.98 | 63 | 1008.0 |
| 20260508220237 | 26 | 349 | 4.8 | 0.0 | 0.00 | 0.00 | 20.98 | 63 | 1008.0 |
| 20260508213250 | 26 | 349 | 4.8 | 0.0 | 0.00 | 0.00 | 20.98 | 63 | 1008.0 |
| 20260508210302 | 26 | 278 | 4.8 | 0.0 | 0.00 | 0.00 | 20.98 | 63 | 1007.0 |
| 20260508203315 | 26 | 278 | 4.8 | 0.0 | 0.00 | 0.00 | 20.98 | 63 | 1007.0 |
| 20260508200328 | 26 | 220 | 6.4 | 0.0 | 0.00 | 0.00 | 20.98 | 63 | 1008.0 |
| 20260508193340 | 26 | 220 | 6.4 | 0.0 | 0.00 | 0.00 | 20.98 | 63 | 1008.0 |
| 20260508184210 | 27 | 225 | 4.8 | 0.0 | 0.00 | 0.00 | 20.98 | 61 | 1009.0 |
| 20260508181223 | 28 | 149 | 1.6 | 0.0 | 0.00 | 0.00 | 20.98 | 55 | 1009.0 |
| 20260508174236 | 28 | 149 | 1.6 | 0.0 | 0.00 | 0.00 | 20.98 | 55 | 1009.0 |
| 20260508171248 | 28 | 255 | 1.6 | 0.0 | 0.00 | 0.00 | 20.98 | 56 | 1010.0 |
| 20260508164301 | 28 | 255 | 1.6 | 0.0 | 0.00 | 0.00 | 20.98 | 56 | 1010.0 |
| 20260508161313 | 28 | 289 | 6.4 | 0.0 | 0.00 | 0.00 | 20.98 | 56 | 1009.0 |
| 20260508154326 | 28 | 289 | 6.4 | 0.0 | 0.00 | 0.00 | 20.98 | 56 | 1009.0 |
| 20260508151338 | 28 | 261 | 8.0 | 0.0 | 0.00 | 0.00 | 20.98 | 55 | 1009.0 |
| 20260508144351 | 28 | 261 | 8.0 | 0.0 | 0.00 | 0.00 | 20.98 | 55 | 1009.0 |
| 20260508141403 | 30 | 255 | 11.3 | 0.0 | 0.03 | 0.00 | 20.98 | 50 | 1008.0 |
| 20260508134415 | 30 | 255 | 11.3 | 0.0 | 0.00 | 0.00 | 20.98 | 50 | 1008.0 |
| 20260508131427 | 32 | 259 | 16.1 | 0.0 | 0.00 | 0.00 | 20.98 | 42 | 1006.0 |
| 20260508124440 | 32 | 259 | 16.1 | 0.0 | 0.00 | 0.00 | 20.98 | 37 | 1007.0 |
| 20260508115629 | 33 | 248 | 11.3 | 0.0 | 0.00 | 0.00 | 20.98 | 35 | 1006.0 |
| 20260508112641 | 34 | 238 | 6.4 | 0.0 | 0.00 | 0.00 | 20.98 | 32 | 1005.0 |
| 20260508105654 | 34 | 238 | 6.4 | 0.0 | 0.00 | 0.00 | 20.98 | 32 | 1005.0 |
| 20260508102707 | 35 | 94 | 6.4 | 0.0 | 0.00 | 0.00 | 20.98 | 25 | 1005.0 |
| 20260508095719 | 35 | 94 | 6.4 | 0.0 | 0.00 | 0.00 | 20.98 | 25 | 1005.0 |
| 20260508092731 | 36 | 78 | 14.5 | 0.0 | 0.00 | 0.00 | 20.98 | 22 | 1005.0 |
| 20260508085744 | 36 | 78 | 14.5 | 0.0 | 0.00 | 0.00 | 20.98 | 22 | 1005.0 |
| 20260508082756 | 38 | 79 | 16.1 | 0.0 | 0.00 | 0.00 | 20.98 | 20 | 1006.0 |
| 20260508075809 | 38 | 79 | 16.1 | 0.0 | 0.00 | 0.00 | 20.98 | 20 | 1006.0 |
| 20260508072822 | 37 | 82 | 14.5 | 0.0 | 0.00 | 0.00 | 20.98 | 23 | 1007.0 |
| 20260508065834 | 37 | 82 | 14.5 | 0.0 | 0.00 | 0.00 | 20.98 | 23 | 1007.0 |
| 20260508053831 | 36 | 76 | 14.5 | 0.0 | 0.00 | 0.00 | 20.98 | 24 | 1008.0 |
| 20260508050843 | 35 | 55 | 16.1 | 0.0 | 0.00 | 0.00 | 20.98 | 26 | 1009.0 |
| 20260508043856 | 35 | 55 | 16.1 | 0.0 | 0.00 | 0.00 | 20.98 | 26 | 1009.0 |
| 20260508040909 | 33 | 42 | 14.5 | 0.0 | 0.00 | 0.00 | 20.98 | 28 | 1010.0 |
| 20260508033921 | 33 | 42 | 14.5 | 0.0 | 0.00 | 0.00 | 20.98 | 28 | 1010.0 |
| 20260508030934 | 30 | 36 | 3.2 | 0.0 | 0.00 | 0.00 | 20.98 | 41 | 1010.0 |
| 20260508023418 | 30 | 36 | 3.2 | 0.0 | 0.00 | 0.00 | 20.98 | 41 | 1010.0 |
| 20260508020431 | 27 | 305 | 0.0 | 0.0 | 0.00 | 0.00 | 20.98 | 53 | 1010.0 |
| 20260508013443 | 27 | 305 | 0.0 | 0.0 | 0.00 | 0.00 | 20.98 | 53 | 1010.0 |
| 20260508010456 | 25 | 324 | 3.2 | 0.0 | 0.00 | 0.00 | 20.98 | 75 | 1009.0 |
| 20260508003509 | 25 | 324 | 3.2 | 0.0 | 0.00 | 0.00 | 20.98 | 75 | 1009.0 |
| 20260508000521 | 24 | 303 | 6.4 | 0.0 | 0.00 | 0.00 | 20.98 | 77 | 1008.0 |
| 20260507233534 | 24 | 245 | 3.2 | 0.0 | 0.00 | 0.00 | 20.98 | 77 | 1008.0 |